Other Public Products
Issued by NWS Grand Forks, ND

Home | Current Version | Previous Version | Graphics & Text | Print | Product List | Glossary On
Versions: 1 2 3 4 5 6 7 8 9 10 11 12 13 14 15 16 17 18 19 20 21 22 23 24 25 26 27 28 29 30 31 32 33 34 35 36 37 38 39 40 41 42 43 44 45 46 47 48 49 50
000
FPUS83 KFGF 190010
OPUFGF
PRAIRIE TO PINES WEATHER ROUNDUP
NATIONAL WEATHER SERVICE EASTERN NORTH DAKOTA/GRAND FORKS ND
600 PM CST SAT NOV 18 2017

 **SATELLITE DATA USED TO AUGMENT SKY COVER AT AUTOMATED STATIONS**
 *****  WEATHER ACROSS EASTERN NORTH DAKOTA  *****

CITY           SKY/WX    TMP DP  RH WIND       PRES   REMARKS
GRAND FORKS    FAIR      15   8  73 W9        30.05S WCI   3
6HR MIN TEMP:  15; 6HR MAX TEMP:  21;

GRND FORKS AFB FAIR      16   7  65 W13       30.05R WCI   3
GRND FORKS NWS   N/A     16 N/A N/A W7          N/A  WCI   6
BUXTON         NOT AVBL
DEVILS LAKE    FAIR      14   8  77 W9        30.05S WCI   2
6HR MIN TEMP:  14; 6HR MAX TEMP:  18;

FARGO          FAIR      19   9  65 NW10      30.08S WCI   7
6HR MIN TEMP:  19; 6HR MAX TEMP:  26;

WAHPETON ARPT  NOT AVBL
$$

 *****  WEATHER ACROSS CENTRAL AND WESTERN NORTH DAKOTA  *****

CITY           SKY/WX    TMP DP  RH WIND       PRES   REMARKS
JAMESTOWN      FAIR      17  10  74 W8        30.06F WCI   7
6HR MIN TEMP:  17; 6HR MAX TEMP:  24;

BISMARCK       FAIR      30  18  60 W5        30.10F
6HR MIN TEMP:  27; 6HR MAX TEMP:  36;

MINOT          FAIR      18  11  74 SW5       30.03S WCI  11
6HR MIN TEMP:  17; 6HR MAX TEMP:  29;

MINOT AFB      FAIR      15  10  78 W5        30.02F WCI   8
6HR MIN TEMP:  15; 6HR MAX TEMP:  25;

GARRISON         N/A     22  16  78 NW3       30.04F
6HR MIN TEMP:  21; 6HR MAX TEMP:  28;

WILLISTON      FAIR      25  16  68 S3        30.04F
6HR MIN TEMP:  24; 6HR MAX TEMP:  32;

DICKINSON      FAIR      25  18  74 W8        30.05S WCI  16
6HR MIN TEMP:  24; 6HR MAX TEMP:  34;

HETTINGER      FAIR      27  17  66 NW3       30.10S
6HR MIN TEMP:  26; 6HR MAX TEMP:  37;

$$

 *****  OTHER OBSERVATIONS NORTHEAST NORTH DAKOTA  *****

CITY           SKY/WX    TMP DP  RH WIND       PRES   REMARKS
WALHALLA       FAIR      16   5  62 W15       30.03R WCI   1
LANGDON        FAIR      12   5  73 W10       30.00S WCI  -1
CAVALIER       FAIR      16   5  62 W18G25    30.02S WCI  -1
GRAFTON        FAIR      18   9  68 W10       30.06R WCI   6
CANDO          FAIR      12   7  79 W8        30.06R WCI   1
FORT TOTTEN    NOT AVBL
ROLLA          MOCLDY    12   1  62 W13       30.00S WCI  -3
RUGBY          CLOUDY    10   7  85 W7        30.04S WCI   0
 ***** THE ABOVE OBSERVATIONS ARE NON NWS ARE NOT QUALITY
        CONTROLLED AND MAY MIS-REPORT RAIN FOR SNOW...
$$

 *****  OTHER OBSERVATIONS SOUTHEAST NORTH DAKOTA *****

CITY           SKY/WX    TMP DP  RH WIND       PRES   REMARKS
COOPERSTOWN    FAIR      16  10  79 W18G25    30.04F WCI  -1
VALLEY CITY    FAIR      16  10  79 NW9       30.08S WCI   4
OAKES            N/A     21   9  58 NW10      30.09S WCI  10
GWINNER          N/A     19   9  63 NW9       30.09S WCI   9
SHEYENNE NWR     N/A     20   7  57 NW8       29.95S WCI  10
BUFFALO        NOT AVBL
WYNDMERE       NOT AVBL
 ***** THE ABOVE OBSERVATIONS ARE NON NWS ARE NOT QUALITY
       CONTROLLED AND MAY MIS-REPORT RAIN FOR SNOW...
$$

  *****  WEATHER ACROSS NORTHERN MINNESOTA  *****

CITY           SKY/WX    TMP DP  RH WIND       PRES   REMARKS
FLAG ISLAND    CLOUDY    14   9  79 W10       29.94R WCI   1
WARROAD        CLOUDY    16   9  73 W9        29.97R WCI   4
ROSEAU         FAIR      16   9  73 W8        29.97F WCI   5
HALLOCK        FAIR      12   7  79 NW8       30.03R WCI   1
THF RVR FALLS  FAIR      13   8  81 W10       30.01S WCI   0
6HR MIN TEMP:  13; 6HR MAX TEMP:  17; 6HR PCP: TRACE;

HALSTAD        NOT AVBL
FOSSTON        FAIR      12   7  79 W8        30.01S WCI   1
BAUDETTE       CLOUDY    15   8  73 W12       29.95R WCI   2
6HR MIN TEMP:  15; 6HR MAX TEMP:  17; 6HR PCP: TRACE;

WASKISH        FLURRIES  16  10  79 W14       29.97R WCI   1
CROOKSTON      FAIR      18  10  73 W12       30.05S WCI   5
$$
  *****  WEATHER ACROSS CENTRAL AND WEST MINNESOTA  *****

CITY           SKY/WX    TMP DP  RH WIND       PRES   REMARKS
BEMIDJI        FLURRIES  15   8  76 W13       29.98R WCI   0
6HR MIN TEMP:  14; 6HR MAX TEMP:  20;

PARK RAPIDS    FAIR      15   9  76 NW9       29.98R WCI   3
6HR MIN TEMP:  15; 6HR MAX TEMP:  22; 6HR PCP: TRACE;

WADENA         FAIR      16  10  79 NW13      30.00S WCI   2
DETROIT LAKES  FAIR      18  10  73 NW10      30.04R WCI   6
MOORHEAD       FAIR      18   7  62 NW12      30.09R WCI   5
FERGUS FALLS   FAIR      18   9  68 NW14      30.09R WCI   4
ELBOW LAKE     FAIR      20  10  67 W12G18    30.06R WCI   7
MORRIS MN      FAIR      21  10  63 NW15      30.06R WCI   8
STAPLES        FAIR      16   9  73 NW8       30.00R WCI   5
WHEATON        FAIR      21   7  53 NW10      30.11R WCI  10
$$
  *****  WEATHER ELSEWHERE ACROSS MINNESOTA  *****

CITY           SKY/WX    TMP DP  RH WIND       PRES   REMARKS
DULUTH         CLOUDY    21  13  71 NW20G28   29.86R WCI   6
6HR MIN TEMP:  21; 6HR MAX TEMP:  26;

INTRNTL FALLS  CLOUDY    16   7  67 NW10G18   29.92R HAZE    WCI   4
6HR MIN TEMP:  16; 6HR MAX TEMP:  22; 6HR PCP: TRACE;

ELY            LGT SNOW  18  10  73 NW10G22   29.85R WCI   6
CLOQUET        FLURRIES  21  12  68 W14G22    29.89R WCI   8
BRAINERD       FAIR      20  10  65 NW17G24   29.98R WCI   5
6HR MIN TEMP:  20; 6HR MAX TEMP:  27;

HIBBING        MIX PCPN  16   9  74 NW22      29.90R WCI  -2
6HR MIN TEMP:  16; 6HR MAX TEMP:  22; 6HR PCP: TRACE;

ALEXANDRIA     FAIR      20  12  71 NW16G23   30.02R WCI   6
6HR MIN TEMP:  20; 6HR MAX TEMP:  27;

SAINT CLOUD    FAIR      21  12  68 NW17G28   30.00R WCI   7
6HR MIN TEMP:  21; 6HR MAX TEMP:  31;

MINNEAPOLIS    FAIR      28  17  63 NW16      29.96R WCI  16
6HR MIN TEMP:  28; 6HR MAX TEMP:  37;

$$

  *****  WEATHER ACROSS SOUTH DAKOTA  *****

CITY           SKY/WX    TMP DP  RH WIND       PRES   REMARKS
SIOUX FALLS    FAIR      31  16  54 NW15      30.10R WCI  20
6HR MIN TEMP:  31; 6HR MAX TEMP:  38;

BROOKINGS      FAIR      27  16  63 NW15      30.07R WCI  15
WATERTOWN      FAIR      24  13  62 NW13      30.06R WCI  12
6HR MIN TEMP:  24; 6HR MAX TEMP:  31;

HURON          FAIR      25  15  66 NW7       30.14R WCI  17
6HR MIN TEMP:  25; 6HR MAX TEMP:  36;

SISSETON         N/A     19  10  68 NW8       30.09R WCI   9
ABERDEEN       FAIR      24  12  60 NW9       30.12S WCI  14
6HR MIN TEMP:  24; 6HR MAX TEMP:  33;

MITCHELL       FAIR      31  17  56 NW10      30.16R WCI  22
PIERRE         FAIR      28  21  75 N5        30.13S WCI  23
6HR MIN TEMP:  27; 6HR MAX TEMP:  37;

MOBRIDGE       FAIR      27  16  63 W3        30.10S
RAPID CITY     FAIR      33  19  56 N9        30.13S
6HR MIN TEMP:  33; 6HR MAX TEMP:  47;

$$

  *****  SOME WEATHER IN NEARBY STATES *****

CITY           SKY/WX    TMP DP  RH WIND       PRES   REMARKS
GLASGOW MT     FAIR      32  21  64 N5        30.06S
6HR MIN TEMP:  24; 6HR MAX TEMP:  38;

GREAT FALLS MT FAIR      38  18  44 SW18      30.06F
6HR MIN TEMP:  37; 6HR MAX TEMP:  43;

CHEYENNE WY    FAIR      32  15  49 W14       30.18S WCI  22
6HR MIN TEMP:  32; 6HR MAX TEMP:  39;

SCOTTSBLUFF NE FAIR      38  17  42 W8        30.19R
6HR MIN TEMP:  38; 6HR MAX TEMP:  45;

OMAHA NE       FAIR      38  25  59 NW15      30.11R
6HR MIN TEMP:  35; 6HR MAX TEMP:  49;

DES MOINES IA  FAIR      38  26  62 NW16G24   30.00R
6HR MIN TEMP:  38; 6HR MAX TEMP:  46;

DAVENPORT IA   FAIR      38  31  76 W13G21    29.84R
6HR MIN TEMP:  37; 6HR MAX TEMP:  41;

CHICAGO IL     CLOUDY    40  30  67 N25G32    29.66R
6HR MIN TEMP:  35; 6HR MAX TEMP:  40; 6HR PCP:  0.15;

EAU CLAIRE WI  CLOUDY    30  19  63 NW10      29.86R WCI  21
6HR MIN TEMP:  30; 6HR MAX TEMP:  40;

LA CROSSE WI   CLOUDY    38  25  59 NW18      29.83R
6HR MIN TEMP:  37; 6HR MAX TEMP:  45;

$$

  *****  SOME NATIONAL WEATHER *****

CITY           SKY/WX    TMP DP  RH WIND       PRES   REMARKS
LA GUARDIA NY  RAIN      51  45  79 SW5       29.61F



USA.gov is the U.S. government's official web portal to all federal, state and local government web resources and services.